Location: Erskine
(52.3216°N, 112.8806°W)
Time: 16:26:28
(UTC+00:00)

Envisat - Pass Details

Date: 10 June 2023
Orbit: 763 x 764 km, 98.2° (Epoch: 20 September)

Event Time Altitude Azimuth Distance (km) Brightness Sun altitude
Rises 09:44:15 0° 31° (NNE) 3,242 8.7 -9.3°
Reaches altitude 10° 09:48:34 10° 66° (ENE) 2,309 6.4 -8.9°
Maximum altitude 09:50:00 11° 83° (E) 2,229 6.0 -8.8°
Drops below altitude 10° 09:51:27 10° 99° (E) 2,304 5.8 -8.7°
Sets 09:55:43 0° 134° (SE) 3,223 6.1 -8.3°
